Location: Newark
(46.7636°N, 1.8358°W)
Time: 19:00:05
(UTC+00:00)

Vanguard 2 Rocket - Pass Details

Date: 16 October 2019
Orbit: 554 x 3326 km, 32.9° (Epoch: 20 November)

Event Time Altitude Azimuth Distance (km) Brightness Sun altitude
Rises 07:35:04 0° 189° (S) 6,571 11.5 10.4°
Reaches altitude 10° 07:41:16 10° 173° (S) 5,917 11.6 11.3°
Maximum altitude 07:52:47 20° 136° (SE) 5,468 12.6 13.1°
Drops below altitude 10° 08:04:36 10° 99° (E) 6,164 12.7 14.8°
Sets 08:11:08 0° 85° (E) 6,935 12.3 15.8°
